User: anonymous   Login
Location: Caltech
(34.1382°N, 118.1253°W)
Time: 20:41:18
(UTC-08:00)
Language:

NOSS 3-4 (C) - Orbit

View from above orbital plane
View from above orbital plane
View from above satellite
View from above satellite

Ground track
Ground track

The orbit data is extracted from the following two-line orbital elements,

1 31708U 07027C   18052.13554523 0.00000000  00000-0  00000-0 0    02
2 31708  63.3971 168.8757 0212000  22.5044 337.4956 13.40746895    08
Epoch (UTC): 21 February 2018 03:15:11
Eccentricity: 0.0212000
inclination: 63.3971°
perigee height: 948 km
apogee height: 1265 km
right ascension of ascending node: 168.8757°
argument of perigee: 22.5044°
revolutions per day: 13.40746895
mean anomaly at epoch: 337.4956°
orbit number at epoch: 0

The dashed part of the orbit path shows where the satellite is in the earth's shadow,  

DLR